N4WFF Weather Reports


time (UTC)temp
F
wind
direction
speed
knots
gust
knots
rain 1hr
in
rain 24hr
in
rain mn
in
humidity
%
barometer
mb
20260504185555 78 227 3.5 5.2 0.00 0.00 0.00 38 1016.1
20260504185055 78 207 1.7 5.2 0.00 0.00 0.00 39 1016.2
20260504184556 77 238 0.9 3.5 0.00 0.00 0.00 38 1016.3
20260504184055 77 266 3.5 4.3 0.00 0.00 0.00 38 1016.3
20260504183556 77 161 2.6 3.5 0.00 0.00 0.00 39 1016.3
20260504183057 77 308 0.9 3.5 0.00 0.00 0.00 38 1016.3
20260504182555 76 157 1.7 4.3 0.00 0.00 0.00 38 1016.3
20260504182055 77 169 5.2 7.8 0.00 0.00 0.00 38 1016.4
20260504181555 77 171 2.6 3.5 0.00 0.00 0.00 39 1016.5
20260504181056 77 1 0.9 1.7 0.00 0.00 0.00 37 1016.6
20260504180555 76 122 1.7 3.5 0.00 0.00 0.00 39 1016.7
20260504180056 76 222 3.5 6.1 0.00 0.00 0.00 39 1016.7
20260504175556 76 168 4.3 7.0 0.00 0.00 0.00 38 1016.8
20260504175055 76 153 1.7 4.3 0.00 0.00 0.00 39 1016.8
20260504174555 76 167 2.6 3.5 0.00 0.00 0.00 38 1016.9
20260504174056 76 100 0.9 2.6 0.00 0.00 0.00 39 1017.0
20260504173555 76 149 2.6 6.1 0.00 0.00 0.00 37 1017.1
20260504173056 76 263 1.7 3.5 0.00 0.00 0.00 39 1017.1
20260504172556 76 172 2.6 5.2 0.00 0.00 0.00 40 1017.1
20260504171606 76 184 1.7 4.3 0.00 0.00 0.00 40 1017.3
20260504171055 76 40 0.9 3.5 0.00 0.00 0.00 45 1017.4
20260504170556 75 12 1.7 3.5 0.00 0.00 0.00 41 1017.4
20260504151056 71 176 2.6 4.3 0.00 0.00 0.00 49 1018.4
20260504150557 71 198 3.5 7.0 0.00 0.00 0.00 50 1018.4
20260504141056 67 209 2.6 3.5 0.00 0.00 0.00 68 1018.7
20260504140142 67 122 0.9 1.7 0.00 0.00 0.00 66 1018.7
20260504130556 55 231 0.0 0.9 0.00 0.00 0.00 94 1018.7
20260504110556 43 0 0.0 0.0 0.00 0.00 0.00 97 1018.1
20260504100555 44 0 0.0 0.0 0.00 0.00 0.00 96 1018.2
20260504081555 45 0 0.0 0.0 0.00 0.00 0.00 96 1018.3
20260504081055 45 0 0.0 0.0 0.00 0.00 0.00 96 1018.3
20260504080556 46 238 0.0 0.9 0.00 0.00 0.00 96 1018.4
20260504050555 49 0 0.0 0.0 0.00 0.00 0.00 94 1019.3
20260504045555 49 0 0.0 0.0 0.00 0.00 0.00 94 1019.4
20260504045055 50 0 0.0 0.0 0.00 0.00 0.00 93 1019.4
20260504044555 50 0 0.0 0.0 0.00 0.00 0.00 93 1019.4
20260504044057 50 61 0.0 0.0 0.00 0.00 0.00 93 1019.4
20260504043555 50 0 0.0 0.0 0.00 0.00 0.00 93 1019.4
20260504043055 50 0 0.0 0.0 0.00 0.00 0.00 93 1019.4
20260504042555 50 0 0.0 0.0 0.00 0.00 0.00 93 1019.5
20260504042055 50 0 0.0 0.0 0.00 0.00 0.00 92 1019.5
20260504041555 51 0 0.0 0.0 0.00 0.00 0.00 92 1019.4
20260504041055 51 0 0.0 0.0 0.00 0.00 0.00 92 1019.4
20260504040555 51 0 0.0 0.0 0.00 0.00 0.00 92 1019.3
20260504040056 51 0 0.0 0.0 0.00 0.00 0.00 92 1019.4
20260504035555 51 0 0.0 0.0 0.00 0.00 0.00 92 1019.4
20260504035055 51 0 0.0 0.0 0.00 0.00 0.00 91 1019.5
20260504034556 51 354 0.0 1.7 0.00 0.00 0.00 91 1019.5
20260504034055 51 0 0.0 0.0 0.00 0.00 0.00 91 1019.4
20260504033556 52 0 0.0 0.0 0.00 0.00 0.00 91 1019.4
20260504033055 52 0 0.0 0.0 0.00 0.00 0.00 91 1019.3
20260504032555 52 0 0.0 0.0 0.00 0.00 0.00 91 1019.3
20260504032055 52 0 0.0 0.0 0.00 0.00 0.00 91 1019.3
20260504031555 52 0 0.0 0.0 0.00 0.00 0.00 91 1019.2
20260504031055 52 0 0.0 0.0 0.00 0.00 0.00 91 1019.2
20260504030557 52 0 0.0 0.0 0.00 0.00 0.00 90 1019.1
20260504030055 53 0 0.0 0.0 0.00 0.00 0.00 90 1019.1
20260504025555 53 210 0.9 2.6 0.00 0.00 0.00 89 1019.1
20260504025058 53 286 0.0 1.7 0.00 0.00 0.00 88 1019.1
20260504024556 54 0 0.0 0.0 0.00 0.00 0.00 87 1019.0
20260504024055 54 0 0.0 0.0 0.00 0.00 0.00 87 1019.0
20260504023556 54 0 0.0 0.0 0.00 0.00 0.00 87 1019.0
20260504023055 54 0 0.0 0.0 0.00 0.00 0.00 84 1019.0
20260504022555 55 0 0.0 0.0 0.00 0.00 0.00 83 1018.9
20260504022055 55 0 0.0 0.0 0.00 0.00 0.00 83 1018.9
20260504021555 55 0 0.0 0.0 0.00 0.00 0.00 82 1018.9
20260504021055 55 338 0.0 0.9 0.00 0.00 0.00 82 1018.8
20260504020555 56 0 0.0 0.0 0.00 0.00 0.00 82 1018.7
20260504020055 56 312 0.0 0.9 0.00 0.00 0.00 82 1018.7
20260504015555 56 0 0.0 0.0 0.00 0.00 0.00 81 1018.7
20260504015058 56 348 0.9 1.7 0.00 0.00 0.00 81 1018.7
20260504014555 57 0 0.0 0.0 0.00 0.00 0.00 83 1018.7
20260504014056 57 35 0.0 1.7 0.00 0.00 0.00 83 1018.6
20260504013555 57 0 0.0 0.0 0.00 0.00 0.00 81 1018.6
20260504013055 58 0 0.0 0.0 0.00 0.00 0.00 80 1018.5
20260504012556 58 0 0.0 0.0 0.00 0.00 0.00 79 1018.4
20260504012055 59 0 0.0 0.0 0.00 0.00 0.00 77 1018.4
20260504011555 59 0 0.0 0.0 0.00 0.00 0.00 75 1018.4
20260504011056 60 0 0.0 0.0 0.00 0.00 0.00 73 1018.3
20260504010556 60 0 0.0 0.0 0.00 0.00 0.00 70 1018.2
20260504010055 61 0 0.0 0.0 0.00 0.00 0.00 67 1018.1
20260504005556 61 0 0.0 0.0 0.00 0.00 0.00 64 1018.0
20260504005055 62 0 0.0 0.0 0.00 0.00 0.00 61 1017.9
20260504004555 62 0 0.0 0.0 0.00 0.00 0.00 62 1017.9
20260504004055 63 0 0.0 0.0 0.00 0.00 0.00 60 1017.7
20260504003555 64 0 0.0 0.0 0.00 0.00 0.00 58 1017.7
20260504003055 64 0 0.0 0.0 0.00 0.00 0.00 65 1017.6
20260504002556 65 0 0.0 0.0 0.00 0.00 0.00 60 1017.6
20260504002055 66 0 0.0 0.0 0.00 0.00 0.00 60 1017.5
20260504001556 67 0 0.0 0.0 0.00 0.00 0.00 61 1017.4
20260504001055 68 17 0.0 0.9 0.00 0.00 0.00 56 1017.4
20260504000556 69 66 0.0 0.9 0.00 0.00 0.00 55 1017.4
20260504000055 69 55 0.0 0.0 0.00 0.00 0.00 44 1017.3
20260503235555 70 0 0.0 0.0 0.00 0.00 0.00 44 1017.4
20260503235055 71 44 0.0 1.7 0.00 0.00 0.00 44 1017.4
20260503234556 71 0 0.0 0.0 0.00 0.00 0.00 43 1017.4
20260503234055 72 359 1.7 2.6 0.00 0.00 0.00 42 1017.4
20260503233555 73 335 0.9 3.5 0.00 0.00 0.00 40 1017.5
20260503233056 74 352 0.9 1.7 0.00 0.00 0.00 39 1017.5
20260503232555 74 0 0.0 0.0 0.00 0.00 0.00 41 1017.5
20260503232055 74 353 0.0 1.7 0.00 0.00 0.00 39 1017.5
20260503231555 74 345 1.7 3.5 0.00 0.00 0.00 37 1017.5
20260503231055 74 351 2.6 3.5 0.00 0.00 0.00 35 1017.5
20260503230555 74 295 0.0 0.9 0.00 0.00 0.00 38 1017.5
20260503230056 74 3 0.9 3.5 0.00 0.00 0.00 36 1017.5
20260503225555 74 352 1.7 5.2 0.00 0.00 0.00 36 1017.4
20260503225055 74 10 0.9 2.6 0.00 0.00 0.00 36 1017.4
20260503224555 74 276 0.0 2.6 0.00 0.00 0.00 39 1017.5
20260503224055 74 0 1.7 4.3 0.00 0.00 0.00 36 1017.5
20260503223556 75 5 2.6 7.8 0.00 0.00 0.00 38 1017.5
20260503223055 75 245 1.7 3.5 0.00 0.00 0.00 36 1017.5
20260503222555 75 330 0.9 2.6 0.00 0.00 0.00 37 1017.6
20260503222055 75 351 0.9 3.5 0.00 0.00 0.00 37 1017.6
20260503221555 75 6 1.7 1.7 0.00 0.00 0.00 36 1017.6
20260503221055 75 239 1.7 2.6 0.00 0.00 0.00 35 1017.5
20260503220555 75 245 0.9 2.6 0.00 0.00 0.00 37 1017.6
20260503220055 75 3 0.9 3.5 0.00 0.00 0.00 37 1017.6
20260503215556 75 353 1.7 4.3 0.00 0.00 0.00 36 1017.7
20260503215055 75 0 1.7 4.3 0.00 0.00 0.00 35 1017.6
20260503214556 75 347 0.9 2.6 0.00 0.00 0.00 35 1017.7
20260503214055 75 346 2.6 6.1 0.00 0.00 0.00 36 1017.7
20260503213556 75 239 1.7 4.3 0.00 0.00 0.00 35 1017.7
20260503213056 74 279 0.9 1.7 0.00 0.00 0.00 35 1017.7
20260503212555 74 351 0.9 3.5 0.00 0.00 0.00 38 1017.7
20260503212055 74 0 3.5 4.3 0.00 0.00 0.00 37 1017.9
20260503211556 75 5 2.6 3.5 0.00 0.00 0.00 38 1017.9
20260503211055 75 12 2.6 7.0 0.00 0.00 0.00 37 1018.0
20260503210557 74 281 0.0 1.7 0.00 0.00 0.00 38 1017.9
20260503210056 75 311 0.9 1.7 0.00 0.00 0.00 37 1017.9
20260503205555 74 289 0.9 2.6 0.00 0.00 0.00 36 1018.0
20260503205055 74 318 1.7 3.5 0.00 0.00 0.00 36 1018.1
20260503204556 74 356 2.6 5.2 0.00 0.00 0.00 35 1018.2
20260503204055 74 344 2.6 6.1 0.00 0.00 0.00 34 1018.3
20260503203557 74 10 2.6 4.3 0.00 0.00 0.00 36 1018.3
20260503203056 75 292 0.9 3.5 0.00 0.00 0.00 37 1018.4
20260503202555 75 271 2.6 4.3 0.00 0.00 0.00 35 1018.5
20260503202055 75 301 2.6 4.3 0.00 0.00 0.00 35 1018.7
20260503201555 75 267 2.6 5.2 0.00 0.00 0.00 37 1018.7
20260503201055 74 33 1.7 3.5 0.00 0.00 0.00 37 1018.7
20260503200555 74 29 1.7 3.5 0.00 0.00 0.00 38 1018.8
20260503200055 75 355 4.3 8.7 0.00 0.00 0.00 35 1019.0
20260503195555 74 273 1.7 4.3 0.00 0.00 0.00 38 1019.1
20260503195055 74 273 1.7 2.6 0.00 0.00 0.00 38 1019.1
20260503194555 74 73 1.7 3.5 0.00 0.00 0.00 38 1019.2
20260503194055 74 18 0.9 2.6 0.00 0.00 0.00 37 1019.2
20260503193555 74 247 0.9 1.7 0.00 0.00 0.00 38 1019.4
20260503193057 73 0 4.3 7.0 0.00 0.00 0.00 38 1019.4
20260503192555 74 32 3.5 7.0 0.00 0.00 0.00 39 1019.5
20260503192056 74 353 0.0 3.5 0.00 0.00 0.00 42 1019.6
20260503191555 73 256 4.3 7.8 0.00 0.00 0.00 37 1019.6
20260503191055 73 5 1.7 3.5 0.00 0.00 0.00 39 1019.7
20260503190556 73 352 4.3 7.8 0.00 0.00 0.00 35 1019.8
20260503190055 73 218 0.9 3.5 0.00 0.00 0.00 36 1019.7